Вернуться в каталог

COSMOS 1275 DEB

АктивенPO
NORAD 12752·DEBRIS·🇷🇺 Russia

Запущен Jun 4, 1981 с Plesetsk Cosmodrome

Loading…

Ближайшие Пролёты (ближайшие 24 часа)

TLE

СвежийSource: Space-Track

Эпоха: Sep 14, 2026, 15:03 UTC

1 12752U 81053CV  26257.62750760  .00000574  00000-0  62317-3 0  9997
2 12752  83.0212 322.4279 0124156 138.4135  14.7065 13.67940727233016

Отслеживайте COSMOS 1275 DEB в реальном времени с AllMySat

Download on the App Store